When you browse on this site, cookies collect data to enhance your experience and personalize the content and advertising you see.
Visit our Privacy Policy to learn more. By continuing to use the site, you agree to this use of cookies and data.

Tiempo cada hora Dori

Hoy, 18 Septiembre, Viernes

Tiempo Temperatura Precipitaciones Viento Presión Humedad
00:00 +28°C° 0 mm 2 mps 734 mmHg 78%
01:00 +28°C° 0 mm 2 mps 734 mmHg 78%
02:00 +28°C° 0 mm 2 mps 734 mmHg 79%
03:00 +27°C° 0 mm 2 mps 734 mmHg 79%
04:00 +27°C° 0 mm 2 mps 734 mmHg 80%
05:00 +27°C° 0 mm 2 mps 735 mmHg 81%
06:00 +27°C° 0 mm 2 mps 735 mmHg 82%
07:00 +28°C° 0 mm 3 mps 736 mmHg 77%
08:00 +29°C° 0 mm 3 mps 736 mmHg 72%
09:00 +30°C° 0 mm 3 mps 737 mmHg 67%
10:00 +31°C° 0.3 mm 3 mps 737 mmHg 63%
11:00 +31°C° 0.3 mm 2 mps 736 mmHg 60%
12:00 +32°C° 0.3 mm 1 mps 736 mmHg 56%
13:00 +32°C° 0 mm 1 mps 735 mmHg 54%
14:00 +33°C° 0 mm 1 mps 735 mmHg 52%
15:00 +33°C° 0 mm 1 mps 734 mmHg 50%
16:00 +33°C° 0 mm 1 mps 734 mmHg 50%
17:00 +33°C° 0 mm 1 mps 734 mmHg 51%
18:00 +33°C° 0 mm 1 mps 734 mmHg 51%
19:00 +33°C° 0 mm 1 mps 735 mmHg 53%
20:00 +32°C° 0 mm 1 mps 735 mmHg 54%
21:00 +32°C° 0 mm 1 mps 735 mmHg 55%
22:00 +32°C° 0 mm 2 mps 735 mmHg 56%
23:00 +32°C° 0 mm 2 mps 735 mmHg 57%

Mañana, 19 Septiembre, Sábado

Tiempo Temperatura Precipitaciones Viento Presión Humedad
00:00 +31°C° 0 mm 2 mps 735 mmHg 57%
01:00 +31°C° 0 mm 2 mps 735 mmHg 58%
02:00 +31°C° 0 mm 2 mps 735 mmHg 59%
03:00 +30°C° 0 mm 2 mps 734 mmHg 59%
04:00 +30°C° 0.1 mm 3 mps 734 mmHg 61%
05:00 +30°C° 0.1 mm 3 mps 734 mmHg 62%
06:00 +30°C° 0.1 mm 3 mps 734 mmHg 63%
07:00 +31°C° 0 mm 3 mps 735 mmHg 59%
08:00 +33°C° 0 mm 4 mps 735 mmHg 54%
09:00 +35°C° 0 mm 4 mps 735 mmHg 50%
10:00 +36°C° 0 mm 4 mps 735 mmHg 44%
11:00 +38°C° 0 mm 4 mps 735 mmHg 39%
12:00 +40°C° 0 mm 4 mps 734 mmHg 34%
13:00 +41°C° 0 mm 4 mps 734 mmHg 31%
14:00 +41°C° 0 mm 4 mps 733 mmHg 29%
15:00 +42°C° 0 mm 5 mps 732 mmHg 26%
16:00 +42°C° 0 mm 4 mps 732 mmHg 27%
17:00 +40°C° 0 mm 3 mps 732 mmHg 28%
18:00 +39°C° 0 mm 2 mps 732 mmHg 29%
19:00 +38°C° 0 mm 3 mps 732 mmHg 30%
20:00 +38°C° 0 mm 3 mps 732 mmHg 32%
21:00 +37°C° 0 mm 3 mps 733 mmHg 33%
22:00 +36°C° 0 mm 4 mps 733 mmHg 37%
23:00 +35°C° 0 mm 5 mps 733 mmHg 41%

Pasado mañana, 20 Septiembre, Domingo

Tiempo Temperatura Precipitaciones Viento Presión Humedad
00:00 +34°C° 0 mm 6 mps 733 mmHg 45%
01:00 +34°C° 0 mm 6 mps 732 mmHg 48%
02:00 +33°C° 0 mm 6 mps 732 mmHg 50%
03:00 +32°C° 0 mm 6 mps 732 mmHg 52%
04:00 +32°C° 0 mm 6 mps 732 mmHg 55%
05:00 +30°C° 0 mm 5 mps 733 mmHg 57%
06:00 +30°C° 0 mm 5 mps 733 mmHg 60%
07:00 +32°C° 0 mm 5 mps 733 mmHg 56%
08:00 +33°C° 0 mm 6 mps 733 mmHg 53%
09:00 +34°C° 0 mm 6 mps 734 mmHg 49%
10:00 +36°C° 0 mm 6 mps 733 mmHg 43%
11:00 +39°C° 0 mm 5 mps 733 mmHg 36%
12:00 +41°C° 0 mm 5 mps 732 mmHg 30%
13:00 +42°C° 0 mm 4 mps 732 mmHg 27%
14:00 +42°C° 0 mm 2 mps 731 mmHg 23%
15:00 +42°C° 0 mm 1 mps 730 mmHg 20%
16:00 +42°C° 0 mm 2 mps 730 mmHg 21%
17:00 +41°C° 0 mm 2 mps 730 mmHg 22%
18:00 +40°C° 0 mm 3 mps 730 mmHg 24%
19:00 +40°C° 0 mm 5 mps 731 mmHg 31%
20:00 +38°C° 0 mm 6 mps 731 mmHg 38%
21:00 +37°C° 0 mm 8 mps 732 mmHg 44%
22:00 +35°C° 0 mm 8 mps 732 mmHg 50%
23:00 +34°C° 0 mm 8 mps 732 mmHg 55%

21 Septiembre, Lunes

Tiempo Temperatura Precipitaciones Viento Presión Humedad
00:00 +33°C° 0 mm 8 mps 732 mmHg 60%
01:00 +32°C° 0 mm 8 mps 732 mmHg 62%
02:00 +32°C° 0 mm 8 mps 732 mmHg 64%
03:00 +32°C° 0 mm 8 mps 732 mmHg 66%
04:00 +31°C° 0 mm 8 mps 733 mmHg 69%
05:00 +29°C° 0 mm 8 mps 733 mmHg 72%
06:00 +29°C° 0 mm 8 mps 734 mmHg 75%
07:00 +31°C° 0 mm 8 mps 734 mmHg 72%
08:00 +31°C° 0 mm 8 mps 734 mmHg 69%
09:00 +32°C° 0 mm 8 mps 735 mmHg 66%
10:00 +34°C° 0 mm 8 mps 734 mmHg 59%
11:00 +37°C° 0 mm 8 mps 734 mmHg 53%
12:00 +38°C° 0 mm 8 mps 733 mmHg 46%
13:00 +39°C° 0 mm 8 mps 733 mmHg 43%
14:00 +40°C° 0 mm 7 mps 732 mmHg 40%
15:00 +40°C° 0 mm 7 mps 732 mmHg 37%
16:00 +40°C° 0 mm 6 mps 732 mmHg 38%
17:00 +38°C° 0 mm 4 mps 732 mmHg 38%
18:00 +38°C° 0 mm 3 mps 732 mmHg 39%
19:00 +37°C° 0 mm 4 mps 732 mmHg 42%
20:00 +36°C° 0 mm 4 mps 733 mmHg 45%
21:00 +35°C° 0 mm 5 mps 734 mmHg 48%
22:00 +34°C° 0.7 mm 4 mps 734 mmHg 53%
23:00 +33°C° 0.7 mm 4 mps 734 mmHg 58%

22 Septiembre, Martes

Tiempo Temperatura Precipitaciones Viento Presión Humedad
00:00 +31°C° 0.7 mm 3 mps 733 mmHg 64%
01:00 +32°C° 0.8 mm 4 mps 733 mmHg 61%
02:00 +32°C° 0.8 mm 4 mps 733 mmHg 57%
03:00 +30°C° 0.8 mm 4 mps 733 mmHg 54%
04:00 +30°C° 0 mm 4 mps 733 mmHg 60%
05:00 +30°C° 0 mm 3 mps 733 mmHg 67%
06:00 +29°C° 0 mm 3 mps 734 mmHg 73%
07:00 +30°C° 0.2 mm 4 mps 734 mmHg 71%
08:00 +30°C° 0.2 mm 5 mps 735 mmHg 69%
09:00 +32°C° 0.2 mm 6 mps 735 mmHg 67%
10:00 +33°C° 0 mm 6 mps 735 mmHg 63%
11:00 +33°C° 0 mm 5 mps 734 mmHg 59%
12:00 +34°C° 0 mm 5 mps 734 mmHg 56%
13:00 +35°C° 0 mm 5 mps 733 mmHg 51%
14:00 +36°C° 0 mm 4 mps 733 mmHg 46%
15:00 +36°C° 0 mm 3 mps 732 mmHg 41%
16:00 +36°C° 0 mm 3 mps 732 mmHg 42%
17:00 +35°C° 0 mm 2 mps 732 mmHg 44%
18:00 +35°C° 0 mm 2 mps 732 mmHg 45%
19:00 +35°C° 0 mm 2 mps 733 mmHg 47%
20:00 +33°C° 0 mm 1 mps 733 mmHg 48%
21:00 +33°C° 0 mm 1 mps 734 mmHg 50%
22:00 +32°C° 0 mm 2 mps 734 mmHg 52%
23:00 +32°C° 0 mm 2 mps 734 mmHg 54%

23 Septiembre, Miércoles

Tiempo Temperatura Precipitaciones Viento Presión Humedad
00:00 +31°C° 0 mm 3 mps 734 mmHg 56%
01:00 +31°C° 0.1 mm 3 mps 734 mmHg 60%
02:00 +30°C° 0.1 mm 4 mps 734 mmHg 64%
03:00 +29°C° 0.1 mm 4 mps 733 mmHg 68%
04:00 +29°C° 0.3 mm 4 mps 734 mmHg 69%
05:00 +29°C° 0.3 mm 4 mps 734 mmHg 71%
06:00 +28°C° 0.3 mm 3 mps 734 mmHg 72%
07:00 +30°C° 0 mm 4 mps 735 mmHg 67%
08:00 +32°C° 0 mm 4 mps 735 mmHg 62%
09:00 +33°C° 0 mm 4 mps 736 mmHg 56%
10:00 +34°C° 0 mm 4 mps 735 mmHg 52%
11:00 +35°C° 0 mm 5 mps 735 mmHg 47%
12:00 +36°C° 0 mm 5 mps 735 mmHg 43%
13:00 +37°C° 0 mm 5 mps 734 mmHg 41%
14:00 +37°C° 0 mm 5 mps 733 mmHg 38%
15:00 +39°C° 0 mm 5 mps 732 mmHg 36%
16:00 +37°C° 0 mm 5 mps 732 mmHg 39%
17:00 +36°C° 0 mm 5 mps 733 mmHg 42%
18:00 +35°C° 0 mm 5 mps 733 mmHg 46%
19:00 +34°C° 0 mm 5 mps 733 mmHg 50%
20:00 +33°C° 0 mm 6 mps 734 mmHg 54%
21:00 +32°C° 0 mm 6 mps 735 mmHg 59%
22:00 +32°C° 0 mm 6 mps 735 mmHg 63%
23:00 +30°C° 0 mm 6 mps 735 mmHg 67%
Mostrar más